Salem, IL

9:33 AM CST on January 22, 2017 (GMT -0600)
Salem-Leckrone

Weather History for KSLO - April, 2014

Change the Weather History Date:

Friday, April 18, 2014

  Actual Average Record
Temperature  
Mean Temperature 58 °F -  
Max Temperature 70 °F 69 °F 86 °F (1977)
Min Temperature 46 °F 46 °F 29 °F (1983)
Degree Days  
Heating Degree Days 7    
Growing Degree Days 8 (Base 50)    
Moisture  
Dew Point 45 °F    
Average Humidity 61    
Maximum Humidity 87    
Minimum Humidity 42    
Precipitation  
Precipitation 0.00 in - - ()
Sea Level Pressure  
Sea Level Pressure 30.26 in    
Wind  
Wind Speed 3 mph (NNE)    
Max Wind Speed 9 mph    
Max Gust Speed -    
Visibility 10 miles    
Events      
Averages and records for this station are not official NWS values.
T = Trace of Precipitation, MM = Missing Value Source: NWS Daily Summary

Daily Weather History Graph

Daily Weather History Graph

Search for Another Location

Airport or City:

Trip Planner

Search our weather history database for the weather conditions in past years. The results will help you decide how hot, cold, wet, or windy it might be!

Date:

Astronomy

Apr. 18, 2014 Rise Set
Actual Time 6:15 AM CDT 7:35 PM CDT
Civil Twilight 5:47 AM CDT 8:03 PM CDT
Nautical Twilight 5:14 AM CDT 8:36 PM CDT
Astronomical Twilight 4:40 AM CDT 9:11 PM CDT
Moon 11:19 PM CDT (4/18) 8:38 AM CDT (4/18)
Length of Visible Light 14h 15m
Length of Day
13h 20m
Waning Gibbous, 87% of the Moon is Illuminated
Apr 18
Waning Gibbous
Apr 22
Last Quarter
Apr 29
New
May 6
First Quarter
May 14
Full

Hourly Weather History & Observations

Time (CDT) Temp. Dew Point Humidity Pressure Visibility Wind Dir Wind Speed Gust Speed Precip Events Conditions
12:15 AM 50.2 °F 42.3 °F 74% 30.25 in 10.0 mi North 3.5 mph - N/A   Clear
12:35 AM 52.9 °F 40.1 °F 62% 30.26 in 10.0 mi Calm Calm - N/A   Clear
12:55 AM 52.2 °F 40.3 °F 64% 30.26 in 10.0 mi Calm Calm - N/A   Clear
1:15 AM 51.4 °F 39.9 °F 65% 30.26 in 10.0 mi Calm Calm - N/A   Clear
1:35 AM 48.7 °F 42.8 °F 80% 30.26 in 10.0 mi North 4.6 mph - N/A   Clear
1:55 AM 48.4 °F 42.1 °F 79% 30.26 in 10.0 mi North 4.6 mph - N/A   Clear
2:15 AM 48.9 °F 42.4 °F 78% 30.26 in 10.0 mi North 5.8 mph - N/A   Scattered Clouds
2:35 AM 49.3 °F 42.8 °F 78% 30.26 in 10.0 mi Calm Calm - N/A   Mostly Cloudy
2:55 AM 49.3 °F 42.8 °F 78% 30.26 in 10.0 mi North 4.6 mph - N/A   Mostly Cloudy
3:15 AM 48.9 °F 43.7 °F 82% 30.25 in 10.0 mi Calm Calm - N/A   Overcast
3:35 AM 51.6 °F 43.3 °F 73% 30.25 in 10.0 mi Calm Calm - N/A   Overcast
3:55 AM 52.3 °F 43.3 °F 71% 30.25 in 10.0 mi ENE 4.6 mph - N/A   Overcast
4:15 AM 51.8 °F 43.0 °F 72% 30.25 in 10.0 mi ENE 4.6 mph - N/A   Overcast
4:35 AM 49.5 °F 43.3 °F 79% 30.26 in 10.0 mi NNW 5.8 mph - N/A   Scattered Clouds
4:55 AM 49.3 °F 43.2 °F 79% 30.26 in 10.0 mi North 4.6 mph - N/A   Clear
5:15 AM 49.3 °F 43.7 °F 81% 30.26 in 10.0 mi NNE 4.6 mph - N/A   Clear
5:35 AM 50.9 °F 43.0 °F 74% 30.26 in 10.0 mi Calm Calm - N/A   Clear
5:55 AM 50.2 °F 42.8 °F 76% 30.27 in 10.0 mi Calm Calm - N/A   Clear
6:15 AM 50.0 °F 42.3 °F 75% 30.27 in 10.0 mi Calm Calm - N/A   Scattered Clouds
6:35 AM 46.6 °F 42.8 °F 87% 30.27 in 10.0 mi Calm Calm - N/A   Mostly Cloudy
6:55 AM 46.8 °F 43.0 °F 87% 30.28 in 10.0 mi NNW 5.8 mph - N/A   Mostly Cloudy
7:15 AM 47.7 °F 42.8 °F 83% 30.28 in 10.0 mi Calm Calm - N/A   Clear
7:35 AM 49.5 °F 44.4 °F 83% 30.29 in 10.0 mi North 4.6 mph - N/A   Clear
7:55 AM 50.9 °F 45.3 °F 81% 30.30 in 10.0 mi North 4.6 mph - N/A   Clear
8:15 AM 52.3 °F 45.5 °F 78% 30.30 in 10.0 mi North 5.8 mph - N/A   Clear
8:35 AM 52.9 °F 45.0 °F 74% 30.30 in 10.0 mi North 6.9 mph - N/A   Clear
8:55 AM 54.0 °F 45.7 °F 74% 30.30 in 10.0 mi North 5.8 mph - N/A   Clear
9:15 AM 55.6 °F 45.7 °F 69% 30.30 in 10.0 mi NNE 6.9 mph - N/A   Clear
9:35 AM 56.8 °F 45.9 °F 67% 30.30 in 10.0 mi North 6.9 mph - N/A   Clear
9:55 AM 58.5 °F 46.0 °F 63% 30.31 in 10.0 mi North 5.8 mph - N/A   Clear
10:15 AM 60.4 °F 46.4 °F 60% 30.31 in 10.0 mi NNE 4.6 mph - N/A   Clear
10:35 AM 61.9 °F 47.1 °F 58% 30.31 in 10.0 mi NNE 3.5 mph - N/A   Clear
10:55 AM 63.1 °F 46.6 °F 55% 30.32 in 10.0 mi NE 5.8 mph - N/A   Clear
11:15 AM 63.3 °F 45.7 °F 53% 30.32 in 10.0 mi Calm Calm - N/A   Clear
11:35 AM 64.2 °F 46.4 °F 52% 30.31 in 10.0 mi NE 6.9 mph - N/A   Clear
11:55 AM 64.6 °F 45.0 °F 49% 30.31 in 10.0 mi Calm Calm - N/A   Clear
12:15 PM 65.5 °F 45.0 °F 47% 30.31 in 10.0 mi Calm Calm - N/A   Clear
12:35 PM 66.0 °F 46.2 °F 49% 30.30 in 10.0 mi Calm Calm - N/A   Clear
12:55 PM 67.3 °F 46.6 °F 47% 30.30 in 10.0 mi NNW 5.8 mph - N/A   Clear
1:15 PM 66.7 °F 44.6 °F 45% 30.30 in 10.0 mi NE 3.5 mph - N/A   Clear
1:35 PM 68.0 °F 47.7 °F 48% 30.30 in 10.0 mi NNE 6.9 mph - N/A   Clear
1:55 PM 68.2 °F 46.8 °F 46% 30.29 in 10.0 mi NE 8.1 mph - N/A   Clear
2:15 PM 68.9 °F 46.6 °F 45% 30.28 in 10.0 mi NE 9.2 mph - N/A   Clear
2:35 PM 68.4 °F 46.4 °F 45% 30.28 in 10.0 mi North 5.8 mph - N/A   Clear
2:55 PM 68.9 °F 46.0 °F 44% 30.27 in 10.0 mi North 6.9 mph - N/A   Clear
3:15 PM 69.4 °F 46.8 °F 44% 30.26 in 10.0 mi North 5.8 mph - N/A   Clear
3:35 PM 70.0 °F 46.0 °F 42% 30.25 in 10.0 mi NW 4.6 mph - N/A   Clear
3:55 PM 69.8 °F 45.7 °F 42% 30.24 in 10.0 mi NE 6.9 mph - N/A   Scattered Clouds
4:15 PM 70.3 °F 46.9 °F 43% 30.24 in 10.0 mi NW 6.9 mph - N/A   Clear
4:35 PM 69.6 °F 46.2 °F 43% 30.23 in 10.0 mi North 5.8 mph - N/A   Clear
4:55 PM 70.0 °F 45.9 °F 42% 30.23 in 10.0 mi North 6.9 mph - N/A   Scattered Clouds
5:15 PM 70.3 °F 46.9 °F 43% 30.22 in 10.0 mi North 9.2 mph - N/A   Scattered Clouds
5:35 PM 69.8 °F 46.2 °F 43% 30.22 in 10.0 mi NE 6.9 mph - N/A   Mostly Cloudy
5:55 PM 69.8 °F 45.5 °F 42% 30.22 in 10.0 mi North 4.6 mph - N/A   Scattered Clouds
6:15 PM 68.9 °F 45.9 °F 44% 30.21 in 10.0 mi North 4.6 mph - N/A   Clear
6:35 PM 68.5 °F 44.6 °F 42% 30.21 in 10.0 mi ENE 6.9 mph - N/A   Clear
6:55 PM 68.0 °F 44.4 °F 43% 30.21 in 10.0 mi NE 8.1 mph - N/A   Clear
7:15 PM 67.1 °F 44.1 °F 43% 30.22 in 10.0 mi NE 5.8 mph - N/A   Clear
7:35 PM 66.4 °F 44.4 °F 45% 30.22 in 10.0 mi ENE 3.5 mph - N/A   Clear
7:55 PM 65.5 °F 44.8 °F 47% 30.22 in 10.0 mi Calm Calm - N/A   Clear
8:15 PM 63.3 °F 45.3 °F 52% 30.22 in 10.0 mi Calm Calm - N/A   Clear
8:35 PM 61.3 °F 45.0 °F 55% 30.23 in 10.0 mi East 3.5 mph - N/A   Clear
8:55 PM 61.9 °F 46.2 °F 56% 30.24 in 10.0 mi Calm Calm - N/A   Clear
9:15 PM 61.2 °F 45.5 °F 56% 30.24 in 10.0 mi NE 3.5 mph - N/A   Clear
9:35 PM 59.2 °F 45.9 °F 61% 30.24 in 10.0 mi Calm Calm - N/A   Clear
9:55 PM 55.4 °F 48.2 °F 77% 30.25 in 10.0 mi NNE 3.5 mph - N/A   Clear
10:15 PM 55.0 °F 47.7 °F 76% 30.25 in 10.0 mi NE 3.5 mph - N/A   Clear
10:35 PM 55.0 °F 46.4 °F 73% 30.25 in 10.0 mi Calm Calm - N/A   Clear
10:55 PM 55.8 °F 45.3 °F 68% 30.25 in 10.0 mi NNE 3.5 mph - N/A   Clear
11:15 PM 55.9 °F 44.8 °F 66% 30.25 in 10.0 mi NNE 4.6 mph - N/A   Clear
11:35 PM 56.3 °F 44.2 °F 64% 30.25 in 10.0 mi Calm Calm - N/A   Clear
11:55 PM 55.9 °F 43.9 °F 64% 30.25 in 10.0 mi NNE 4.6 mph - N/A   Clear